This demonstration page uses our WeatherBlox Daily Observations layout. Learn more.

Left ArrowRight Arrow

Hourly Observations for January 8, 2019

Temp ( °F °C ) Dew Point ( °F °C ) Humidity (%) Winds ( mph kmh ) Pressure ( in mb ) Visibility ( mi km ) Precip ( " mm )
12:51 am 00:51 Clear 36 2.2 35 1.7 97 97 N N/A 30.23 1024 10 16 N/A
1:51 am 01:51 Clear 34 1.1 33 0.6 97 97 N N/A 30.24 1024 10 16 N/A
2:51 am 02:51 Clear 33 0.6 33 0.6 100 100 N N/A 30.24 1024 10 16 N/A
3:51 am 03:51 Clear 32 undefined 32 undefined 100 100 SSE 5 7 30.23 1024 10 16 N/A
4:51 am 04:51 Clear 33 0.6 32 undefined 96 96 E 5 7 30.22 1023 10 16 N/A
5:51 am 05:51 Clear 39 3.9 34 1.1 82 82 SE 13 20 30.22 1024 10 16 N/A
6:51 am 06:51 Clear 40 4.4 33 0.6 77 77 ESE 10 17 30.24 1024 10 16 N/A
7:51 am 07:51 Sunny 40 4.4 33 0.6 77 77 ESE 9 15 30.26 1025 10 16 N/A
8:51 am 08:51 Sunny 44 6.7 34 1.1 68 68 ESE 15 24 30.26 1025 10 16 N/A
9:51 am 09:51 Sunny 49 9.4 35 1.7 59 59 ESE 13 20 30.28 1026 10 16 N/A
10:51 am 10:51 Sunny 54 12.2 36 2.2 51 51 ESE 12 19 30.26 1025 10 16 N/A
11:51 am 11:51 Sunny 57 13.9 37 2.8 47 47 ESE 10 17 30.24 1024 10 16 N/A
12:51 pm 12:51 Sunny 59 15 38 3.3 46 46 SE 8 13 30.20 1023 10 16 N/A
1:51 pm 13:51 Sunny 62 16.7 36 2.2 38 38 SSE 10 17 30.19 1022 10 16 N/A
2:51 pm 14:51 Sunny 63 17.2 37 2.8 38 38 SSE 13 20 30.17 1022 10 16 N/A
3:51 pm 15:51 Sunny 63 17.2 36 2.2 37 37 S 12 19 30.17 1022 10 16 N/A
4:51 pm 16:51 Sunny 62 16.7 35 1.7 37 37 SSE 9 15 30.17 1022 10 16 N/A
5:51 pm 17:51 Clear 57 13.9 36 2.2 45 45 ESE 7 11 30.18 1022 10 16 N/A
6:51 pm 18:51 Clear 50 10 37 2.8 61 61 ESE 8 13 30.21 1023 10 16 N/A
7:51 pm 19:51 Clear 51 10.6 36 2.2 56 56 SE 9 15 30.22 1024 10 16 N/A
8:51 pm 20:51 Clear 50 10 35 1.7 57 57 ESE 9 15 30.23 1024 10 16 N/A
9:51 pm 21:51 Clear 49 9.4 34 1.1 56 56 ESE 10 17 30.24 1024 10 16 N/A
10:51 pm 22:51 Clear 47 8.3 35 1.7 63 63 ESE 9 15 30.24 1024 10 16 N/A
11:51 pm 23:51 Clear 45 7.2 35 1.7 68 68 E 7 11 30.24 1024 10 16 N/A

Powered by AerisWeather